Regional Weather Roundup
Issued by NWS

Home | Current Version | Previous Version | Graphics & Text | Print | Product List | Glossary On
Versions: 1 2 3 4 5 6 7 8 9 10 11 12 13 14 15 16 17 18 19 20 21 22 23 24 25 26 27 28 29 30 31 32 33 34 35 36 37 38 39 40 41 42 43 44 45 46 47 48 49 50
000
ASUS43 KDTX 281701
RWRMI
MICHIGAN HOURLY REGIONAL WEATHER ROUNDUP
NATIONAL WEATHER SERVICE DETROIT/PONTIAC MI
100 PM EDT THU AUG 28 2014

NOTE: "FAIR" INDICATES FEW OR NO CLOUDS BELOW 12,000 FEET WITH NO
SIGNIFICANT WEATHER AND/OR OBSTRUCTION TO VISIBILITY.

MIZ047>049-052>055-059>063-066>070-074>076-081>083-281800-
SOUTHEAST LOWER MICHIGAN

CITY           SKY/WX    TMP DP  RH WIND       PRES   REMARKS
ADRIAN         CLOUDY    70  56  61 E7        30.17S
ALMA           SUNNY     66  45  45 E3        30.19S
ANN ARBOR      SUNNY     71  53  52 CALM      30.16F
BAD AXE        PTSUNNY   66  52  59 NE7       30.18S
CARO           PTSUNNY   66  53  62 E3        30.18S
DETROIT CITY   SUNNY     71  47  42 VRB5      30.17F
DETROIT        MOSUNNY   71  54  54 VRB6      30.17S
FLINT          SUNNY     70  48  45 NE7       30.18F
GROSSE ILE     SUNNY     70  54  56 E8        30.15F
HILLSDALE      MOSUNNY   72  58  62 NE3       30.16F
HOWELL         SUNNY     66  48  51 NW6       30.18S

CITY           SKY/WX    TMP DP  RH WIND       PRES   REMARKS
JACKSON        PTSUNNY   72  56  57 VRB3      30.17S
LAMBERTVILLE   CLOUDY    70  55  60 NE3       30.17S
LANSING        SUNNY     67  48  50 VRB6      30.19S
LAPEER         PTSUNNY   65  50  58 E6        30.18F
MASON          SUNNY     66  52  60 N6        30.18S
MONROE         CLOUDY    72  55  56 N5        30.15S
MT. CLEMENS    MOSUNNY   68  51  53 E7        30.16S
PONTIAC        MOSUNNY   67  48  50 NW9       30.17F
PORT HOPE        N/A     65  55  70 N6        30.18R
PORT HURON     MOSUNNY   66  54  63 CALM      30.17S
TRI CITIES     SUNNY     67  50  54 E8        30.19F
TROY           SUNNY     69  46  44 NE9       30.18F
SAGINAW HB     CLOUDY    68  52  56 CALM      30.18S
$$
MIZ043>046-050>051-056>058-064>065-071>073-077>080-281800-
SOUTHWEST LOWER MICHIGAN

CITY           SKY/WX    TMP DP  RH WIND       PRES   REMARKS
BATTLE CREEK   PTSUNNY   70  57  63 E7        30.16F
BENTON HARBOR  SUNNY     74  59  59 E8        30.13F
BIG RAPIDS     SUNNY     67  52  57 E8        30.17F
COLDWATER      PTSUNNY   71  60  67 E3        30.15F
FREMONT        FAIR      70  45  39 E9        30.17S
HOLLAND        SUNNY     73  55  53 E10       30.16F
GRAND RAPIDS   MOSUNNY   69  53  56 E9        30.18S
IONIA          FAIR      68  49  49 NE8       30.17S
KALAMAZOO      CLOUDY    69  59  70 VRB5      30.16F
LUDINGTON      CLOUDY    69  53  55 CALM      30.17S
MARSHALL       CLOUDY    70  58  64 N6        30.16S
MOUNT PLEASANT SUNNY     67  45  44 SE3       30.18S
MUSKEGON       MOSUNNY   72  50  45 E12       30.17S
SOUTH HAVEN    MOSUNNY   72  61  68 SE7       30.15S
$$
MIZ016>042-281800-
NORTHERN LOWER MICHIGAN

CITY           SKY/WX    TMP DP  RH WIND       PRES   REMARKS
ALPENA         PTSUNNY   66  49  54 NW7       30.18S
BEAVER ISLAND  MOSUNNY   67  49  51 W3        30.19S
BELLAIRE       MOSUNNY   67  46  46 CALM      30.18F
CADILLAC       SUNNY     66  50  55 SE5       30.18F
CHARLEVOIX     MOSUNNY   64  52  64 N7        30.22S
FRANKFORT      PTSUNNY   70  49  47 SE5       30.18S
GAYLORD        PTSUNNY   63  45  51 NW5       30.19S
GRAYLING       MOSUNNY   69  47  44 W6G18     30.19S
HARBOR SPRINGS MOSUNNY   65  51  58 SW7       30.19S
HOUGHTON LAKE  SUNNY     65  48  54 SW9       30.19F
MANISTEE       CLOUDY    68  48  49 NE7       30.18S
OSCODA         MOSUNNY   67  51  55 E7        30.17S
PELLSTON       MOSUNNY   67  45  45 W5        30.18F
TRAVERSE CITY  MOSUNNY   67  47  48 NE8       30.18S
$$
MIZ007>008-015-281800-
EASTERN UPPER MICHIGAN

CITY           SKY/WX    TMP DP  RH WIND       PRES   REMARKS
KINROSS        PTSUNNY   63  46  55 N5        30.18S
MACKINAC ISLAN MOSUNNY   63  49  61 NE3       30.18F
NEWBERRY       PTSUNNY   66  46  49 CALM      30.18S
S. S. MARIE    MOSUNNY   64  45  49 W7        30.16F
$$
MIZ004>006-011>014-085-281800-
CENTRAL UPPER MICHIGAN

CITY           SKY/WX    TMP DP  RH WIND       PRES   REMARKS
MANISTIQUE     PTSUNNY   64  49  57 S7        30.19S
ESCANABA       CLOUDY    64  52  63 SE9       30.17F
MENOMINEE      CLOUDY    66  55  68 S5        30.15F
SAWYER-GWINN   MOSUNNY   64  50  59 W7        30.17F
$$
MIZ001>003-009>011-084-281800-
WESTERN UPPER MICHIGAN

CITY           SKY/WX    TMP DP  RH WIND       PRES   REMARKS
IRON MOUNTAIN  PTSUNNY   68  49  50 CALM      30.15F
HOUGHTON       PTSUNNY   66  50  56 SE9       30.15F
COPPER HARBOR    N/A     66  48  52 SW6       30.14F
$$

ABBREVIATIONS USED IN REMARKS
   TC - TEMPERATURE IN CELSIUS
  WCI - WIND CHILL INDEX
   HX - HEAT INDEX
  VSB - VISIBILITY



USA.gov is the U.S. government's official web portal to all federal, state and local government web resources and services.